Regional Weather Roundup
Issued by NWS Green Bay, WI

Home | Current Version | Previous Version | Graphics & Text | Print | Product List | Glossary Off
Versions: 1 2 3 4 5 6 7 8 9 10 11 12 13 14 15 16 17 18 19 20 21 22 23 24 25 26 27 28 29 30 31 32 33 34 35 36 37 38 39 40 41 42 43 44 45 46 47 48 49 50

000
ASUS43 KGRB 052311
RWRGRB

NORTH-CENTRAL AND NORTHEAST WISCONSIN REGIONAL WEATHER ROUNDUP
NATIONAL WEATHER SERVICE GREEN BAY WI
600 PM CDT SUN JUL 05 2015

WIZ005-009-010>012-018-019-060000-
NORTH CENTRAL WISCONSIN

CITY           SKY/WX    TMP DP  RH WIND       PRES   REMARKS
IRONWOOD         N/A     81  63  54 S12G21    29.83F
MANITOWISH WTR MOSUNNY   78  62  58 SW10G16   29.93S
ARBOR VITAE    MOSUNNY   80  62  54 SW13      29.93F
EAGLE RIVER    MOSUNNY   79  57  47 S8        29.94S
LAND O LAKES   MOSUNNY   80  59  48 SW7       29.94F
RHINELANDER    MOSUNNY   80  60  50 SW14      29.96F
PHILLIPS       PTSUNNY   78  63  60 S9G17     29.93S
ANTIGO         SUNNY     77  64  65 S12       29.97F
TOMAHAWK       SUNNY     79  62  57 S5        29.95F HAZE
MERRILL        SUNNY     80  63  55 SW9       29.96F
$$

WIZ013-073-060000-
NORTHEAST WISCONSIN

CITY           SKY/WX    TMP DP  RH WIND       PRES   REMARKS
IRON MOUNTAIN  SUNNY     81  59  47 S15       29.94S
MARINETTE      SUNNY     77  61  57 S12       29.95F
OCONTO         SUNNY     78  66  65 S12       29.96S
$$

WIZ017-030-035>037-045-060000-
CENTRAL WISCONSIN

CITY           SKY/WX    TMP DP  RH WIND       PRES   REMARKS
MEDFORD        MOSUNNY   80  63  55 S9        29.95F
WAUSAU         SUNNY     82  59  45 S15       29.95F
MOSINEE        SUNNY     79  63  57 S12G17    29.98F
MARSHFIELD     MOSUNNY   81  62  52 S14       29.95F
WISC RAPIDS    MOSUNNY   82  60  47 S12       29.97F
STEVENS POINT  SUNNY     80  61  51 S13G18    29.96F
WAUPACA        MOSUNNY   83  62  47 S10       29.97S
SHAWANO        SUNNY     83  60  45 SW7       29.96S
CLINTONVILLE   SUNNY     82  61  47 S14       29.97S
$$

WIZ038-039-048-051-060000-
FOX VALLEY

CITY           SKY/WX    TMP DP  RH WIND       PRES   REMARKS
NWS GREEN BAY  SUNNY     82  61  48 S12       29.97F
APPLETON       MOSUNNY   81  61  50 S12       29.99F
OSHKOSH        SUNNY     81  63  54 S12       29.98F
FOND DU LAC    SUNNY     81  63  54 S14       29.99F
$$

WIZ022-050-052-060000-
EAST CENTRAL WISCONSIN

CITY           SKY/WX    TMP DP  RH WIND       PRES   REMARKS
STURGEON BAY   SUNNY     73  59  60 S14G25    30.02R
MANITOWOC      SUNNY     73  60  63 MISG      30.01F
SHEBOYGAN      SUNNY     75  60  59 S14G22    30.02F
$$

LMZ563-521-522-541>543-060000-
LAKESHORE

STATION/POSITION TIME  TEMP    WIND        PRES    VSBY  WAVE
                       AIR SEA DIR/SP/G                  HT/PER
                 (UTC) (F)     (DEG/KT/KT) (MB)    (MI)  (FT/S)
SHEBOYGAN LKSHOR 2300   64     180/ 14/ 15 1016.6F
KEWAUNEE LKSHORE 2200   64     190/ 11/ 13 1015.8F
ALGOMA MARINA    2211          210/ 12/ 14   N/A
NORTHPORT PIER   2200   72     150/  8/ 14 1015.2F
N MID LAKE BUOY  2250   57 47  200/ 10/ 12 1015.5F         1/ 3
S GREEN BAY BUOY 2300   75 71  170/ 14/ 19 1016.0F
SISTER BAY LKSHO 2244   74     200/ 20/ 25   N/A
CHAMBERS ISLAND  2200   76     160/  7/ 11 1015.2F
MENOMINEE LKSHOR 2200   74     150/ 17/ 20 1015.3F
$$


USA.gov is the U.S. government's official web portal to all federal, state and local government web resources and services.